Вернуться в каталог

COSMOS 2488

АктивенНавигацияPO
NORAD 39483·PAYLOAD·🇷🇺 Russia

Запущен Dec 25, 2013 с Plesetsk Cosmodrome

Loading…

Ближайшие Пролёты (ближайшие 24 часа)

TLE

СвежийSource: Space-Track

Эпоха: Sep 14, 2026, 15:06 UTC

1 39483U 13076A   26257.62951741  .00000081  00000-0  51632-3 0  9990
2 39483  82.4808 112.9713 0018505 262.2561  97.6417 12.42908477577003

Отслеживайте COSMOS 2488 в реальном времени с AllMySat

Download on the App Store